YA38 VQPR-VNKT

Flight info

Callsign YA38
Flight time N/A
Altitude 34000
Route VQPR TMLR RATAN VNKT
Aircraft A319/M-V/N

Departure

Time 2026-04-30 12:12
Airport Paro International Airport (VQPR)

Arrival

Time N/A
Airport Tribhuvan International Airport (VNKT)
Time Latitude Longitude Altitude Speed Heading
2026-04-30 11:45 27.40757 89.42024 7349 ft 0 kts 242°
2026-04-30 12:05 27.40764 89.42039 7350 ft 5 kts 242°
2026-04-30 12:05 27.40782 89.42079 7350 ft 5 kts 242°
2026-04-30 12:05 27.40780 89.42117 7350 ft 5 kts 313°
2026-04-30 12:05 27.40767 89.42126 7350 ft 0 kts 338°
2026-04-30 12:06 27.40768 89.42126 7350 ft 0 kts 339°
2026-04-30 12:06 27.40782 89.42120 7350 ft 3 kts 342°
2026-04-30 12:06 27.40789 89.42118 7350 ft 4 kts 351°
2026-04-30 12:06 27.40811 89.42122 7351 ft 5 kts 28°
2026-04-30 12:07 27.40863 89.42127 7353 ft 10 kts 340°
2026-04-30 12:07 27.40942 89.42077 7353 ft 16 kts 328°
2026-04-30 12:07 27.41056 89.42004 7354 ft 21 kts 331°
2026-04-30 12:07 27.41158 89.41915 7354 ft 16 kts 301°
2026-04-30 12:08 27.41188 89.41916 7354 ft 0 kts 146°
2026-04-30 12:08 27.41188 89.41917 7354 ft 0 kts 146°
2026-04-30 12:11 27.41099 89.41981 7354 ft 52 kts 149°
2026-04-30 12:11 27.40532 89.42344 7344 ft 134 kts 152°
2026-04-30 12:12 27.39519 89.42931 7584 ft 179 kts 155°
2026-04-30 12:12 27.38345 89.43577 8188 ft 205 kts 150°
2026-04-30 12:12 27.36979 89.44396 8637 ft 244 kts 149°
2026-04-30 12:12 27.35466 89.45403 9427 ft 270 kts 148°
2026-04-30 12:13 27.33879 89.46389 10244 ft 260 kts 150°
2026-04-30 12:13 27.32359 89.47221 11055 ft 248 kts 158°
2026-04-30 12:13 27.30708 89.47819 11624 ft 252 kts 160°
2026-04-30 12:13 27.29076 89.48434 12464 ft 245 kts 159°
2026-04-30 12:14 27.27673 89.48881 13375 ft 237 kts 175°
2026-04-30 12:14 27.26135 89.48541 13758 ft 252 kts 211°
2026-04-30 12:14 27.25125 89.47498 14065 ft 262 kts 239°
2026-04-30 12:14 27.24603 89.45470 14469 ft 276 kts 273°
2026-04-30 12:15 27.26142 89.42201 15147 ft 298 kts 322°
2026-04-30 12:15 27.27900 89.40511 15553 ft 318 kts 310°
2026-04-30 12:15 27.29023 89.38123 15958 ft 338 kts 286°
2026-04-30 12:16 27.29221 89.35421 16343 ft 357 kts 264°
2026-04-30 12:16 27.28506 89.32699 16723 ft 375 kts 244°
2026-04-30 12:16 27.27039 89.30203 17114 ft 391 kts 234°
2026-04-30 12:16 27.25347 89.27782 17488 ft 397 kts 232°
2026-04-30 12:17 27.22287 89.23370 18165 ft 400 kts 234°